Regional Weather Roundup
Issued by NWS

Home | Current Version | Previous Version | Text Only | Print | Product List | Glossary Off
Versions: 1 2 3 4 5 6 7 8 9 10 11 12 13 14 15 16 17 18 19 20 21 22 23 24 25 26 27 28 29 30 31 32 33 34 35 36 37 38 39 40 41 42 43 44 45 46 47 48 49 50

000
ASUS44 KMEG 232100
RWRTN
TENNESSEE HOURLY STATE WEATHER ROUNDUP
NATIONAL WEATHER SERVICE MEMPHIS TN
400 PM CDT THU MAR 23 2017

TNZ002-004-019-021-049-052-054-088>092-232200-
WEST TENNESSEE

CITY           SKY/WX    TMP DP  RH WIND       PRES   REMARKS
MEMPHIS INTL   MOSUNNY   79  52  38 S10       30.14F
NWS MEMPHIS      N/A     81 N/A N/A MISG        N/A
JACKSON        SUNNY     76  47  35 VRB3      30.16F
DYERSBURG      SUNNY     73  48  41 S9        30.17F
PARIS          SUNNY     64  39  39 SE6       30.19F
$$

TNZ008-025-027-028-033-062-065-066-232200-
NORTH MIDDLE TENNESSEE

CITY           SKY/WX    TMP DP  RH WIND       PRES   REMARKS
NASHVILLE      PTSUNNY   67  41  38 E5        30.25F
CLARKSVILLE    CLOUDY    55  41  59 E9        30.24F
SMYRNA         CLOUDY    70  43  37 S14       30.25F
CROSSVILLE     CLOUDY    59  34  39 VRB7      30.33S
$$

TNZ061-075-076-078-094-096-097-232200-
SOUTH MIDDLE TENNESSEE

CITY           SKY/WX    TMP DP  RH WIND       PRES   REMARKS
TULLAHOMA      SUNNY     66  39  37 S10       30.28S
WINCHESTER     SUNNY     66  43  42 S10       30.28S
MCMINNVILLE    SUNNY     64  41  42 S5        30.29S
COLUMBIA       SUNNY     72  45  37 SE9       30.21F
SHELBYVILLE    SUNNY     72  45  37 S10       30.27F
$$

TNZ017-018-042-046-047-232200-
NORTHEAST TENNESSEE

CITY           SKY/WX    TMP DP  RH WIND       PRES   REMARKS
TRI CITIES     MOSUNNY   63  31  30 SW6       30.35F
$$

TNZ012-013-036-069-073-074-232200-
CENTRAL EAST TENNESSEE

CITY           SKY/WX    TMP DP  RH WIND       PRES   REMARKS
KNOXVILLE      PTSUNNY   66  38  35 SW12      30.32F
OAK RIDGE      MOSUNNY   67  36  31 VRB6      30.34F
GATLINBURG     SUNNY     66  34  30 N5        30.32F
$$

TNZ083-085-099-232200-
SOUTHEAST TENNESSEE

CITY           SKY/WX    TMP DP  RH WIND       PRES   REMARKS
CHATTANOOGA    CLOUDY    65  36  34 SE7       30.32F
$$

SKY/WX REPORTED AS FAIR MEANS FEW OR NO CLOUDS BELOW
12 THOUSAND FEET.





USA.gov is the U.S. government's official web portal to all federal, state and local government web resources and services.